सभी
Faith Ranch Airport (Carrizo Springs, TX) XA89 मौसम
There is no TAF data available at XA89 or any nearby airports.
There is no METAR data available at XA89. Showing METAR data for KCZT (25 mi NE).
Recent CZT METAR history (no data for XA89)
| Date | Time (CDT) | Flight Rules | Wind Dir. | Speed | Type | Height AGL (ft) | Visibility | Temp (°C) | Temp (°F) | Dew Point (°C) | Dew Point (°F) | Rel. Humid. | Pressure | Density Altitude | Remarks |
|---|---|---|---|---|---|---|---|---|---|---|---|---|---|---|---|
| 04-मई | 10:55 | VFR | 190° | 10 kt | 10 miles | 24° | 75° | 17° | 62° | 65% | 29.96 in Hg | 1,638 ft | |||
| 04-मई | 10:15 | VFR | 160° | 12 kt | 10 miles | 23° | 73° | 17° | 62° | 69% | 29.95 in Hg | 1,528 ft | Wind gusting to 17 KT | ||
| 04-मई | 09:55 | VFR | 180° | 11 kt | 10 miles | 22° | 71° | 17° | 62° | 73% | 29.97 in Hg | 1,388 ft | Wind gusting to 16 KT | ||
| 04-मई | 09:35 | VFR | 170° | 11 kt | 10 miles | 22° | 71° | 18° | 64° | 78% | 29.96 in Hg | 1,398 ft | Wind gusting to 14 KT | ||
| 04-मई | 09:15 | VFR | 160° | 8 kt | 10 miles | 21° | 69° | 18° | 64° | 83% | 29.96 in Hg | 1,278 ft | |||
| 04-मई | 08:55 | VFR | 170° | 9 kt | 10 miles | 20° | 68° | 18° | 64° | 88% | 29.96 in Hg | 1,158 ft | |||
| 04-मई | 08:35 | VFR | 140° | 6 kt | 10 miles | 20° | 68° | 18° | 64° | 88% | 29.97 in Hg | 1,148 ft | |||
| 04-मई | 08:15 | VFR | 140° | 3 kt | 10 miles | 18° | 64° | 18° | 64° | 100% | 29.97 in Hg | 908 ft | |||
| 04-मई | 07:55 | VFR | 150° | 4 kt | 10 miles | 17° | 62° | 17° | 62° | 100% | 29.96 in Hg | 798 ft | |||
| 04-मई | 07:35 | VFR | Calm | 10 miles | 17° | 62° | 17° | 62° | 100% | 29.95 in Hg | 808 ft | ||||
| 04-मई | 07:15 | VFR | 130° | 3 kt | 10 miles | 17° | 62° | 17° | 62° | 100% | 29.95 in Hg | 808 ft | |||
| 04-मई | 06:55 | VFR | 160° | 5 kt | 10 miles | 17° | 62° | 17° | 62° | 100% | 29.95 in Hg | 808 ft | |||
| 04-मई | 06:35 | VFR | Calm | 10 miles | 17° | 62° | 17° | 62° | 100% | 29.95 in Hg | 808 ft | ||||
| 04-मई | 06:15 | VFR | 140° | 3 kt | 10 miles | 17° | 62° | 17° | 62° | 100% | 29.96 in Hg | 798 ft | |||
| 04-मई | 05:55 | VFR | 140° | 5 kt | 10 miles | 17° | 62° | 16° | 60° | 94% | 29.95 in Hg | 808 ft | |||
| 04-मई | 05:35 | VFR | 140° | 4 kt | 10 miles | 17° | 62° | 16° | 60° | 94% | 29.95 in Hg | 808 ft | |||
| 04-मई | 05:15 | VFR | 150° | 4 kt | 10 miles | 17° | 62° | 16° | 60° | 94% | 29.96 in Hg | 798 ft | |||
| 04-मई | 04:55 | VFR | 140° | 3 kt | 10 miles | 17° | 62° | 15° | 59° | 88% | 29.98 in Hg | 778 ft | |||
| 04-मई | 04:15 | VFR | 150° | 3 kt | 10 miles | 18° | 64° | 14° | 57° | 77% | 29.97 in Hg | 908 ft | |||
| 04-मई | 03:55 | VFR | 160° | 9 kt | 10 miles | 18° | 64° | 13° | 55° | 73% | 29.95 in Hg | 928 ft | |||
| 04-मई | 03:35 | VFR | 160° | 9 kt | 10 miles | 18° | 64° | 13° | 55° | 73% | 29.97 in Hg | 908 ft | |||
| 04-मई | 03:15 | VFR | 160° | 7 kt | 10 miles | 18° | 64° | 13° | 55° | 73% | 29.98 in Hg | 898 ft | |||
| 04-मई | 02:55 | VFR | 160° | 7 kt | 10 miles | 18° | 64° | 13° | 55° | 73% | 29.99 in Hg | 888 ft | |||
| 04-मई | 02:15 | VFR | 160° | 8 kt | 10 miles | 18° | 64° | 13° | 55° | 73% | 30.00 in Hg | 878 ft |
लॉगिन
| Your browser is unsupported. अपना ब्राऊजर अपग्रेड करें |
